Location: Bad Salzschlirf
(50.3750°N, 9.3000°E)
Time: 05:54:37
(UTC+02:00)

ISS - Pass Details

Date: 02 April 2020
Orbit: 417 x 423 km, 51.6° (Epoch: 29 March)

Event Time Altitude Azimuth Distance (km) Brightness Sun altitude
Rises 21:46:33 0° 284° (WNW) 2,361 1.5 -17.1°
Reaches altitude 10° 21:48:58 10° 268° (W) 1,495 -0.1 -17.4°
Maximum altitude 21:51:34 21° 217° (SW) 1,000 -1.8 -17.7°
Enters shadow 21:52:21 19° 197° (SSW) 1,055 -1.9 -17.8°
